EN

Hourly Weather Dzierzazna

Today, 23 October, Friday

Time Temperature Precipitation Wind Pressure Humidity
00:00 +15°C° 0 mm 4 mps 758 mmHg 79%
01:00 +17°C° 0 mm 4 mps 758 mmHg 78%
02:00 +15°C° 0 mm 4 mps 758 mmHg 81%
03:00 +15°C° 0 mm 4 mps 757 mmHg 84%
04:00 +14°C° 0 mm 3 mps 757 mmHg 87%
05:00 +14°C° 0 mm 3 mps 757 mmHg 89%
06:00 +14°C° 0 mm 3 mps 757 mmHg 90%
07:00 +13°C° 0 mm 3 mps 757 mmHg 92%
08:00 +14°C° 0 mm 3 mps 757 mmHg 88%
09:00 +16°C° 0 mm 3 mps 757 mmHg 85%
10:00 +17°C° 0 mm 3 mps 757 mmHg 81%
11:00 +17°C° 0 mm 3 mps 757 mmHg 78%
12:00 +18°C° 0 mm 2 mps 757 mmHg 75%
13:00 +18°C° 0 mm 2 mps 757 mmHg 71%
14:00 +18°C° 0.1 mm 2 mps 757 mmHg 74%
15:00 +18°C° 0.1 mm 1 mps 757 mmHg 78%
16:00 +18°C° 0.1 mm 1 mps 756 mmHg 81%
17:00 +16°C° 0.7 mm 1 mps 756 mmHg 85%
18:00 +16°C° 0.7 mm 1 mps 756 mmHg 90%
19:00 +15°C° 0.7 mm 2 mps 756 mmHg 94%
20:00 +15°C° 0.6 mm 2 mps 756 mmHg 95%
21:00 +15°C° 0.6 mm 2 mps 756 mmHg 96%
22:00 +15°C° 0.6 mm 2 mps 756 mmHg 97%
23:00 +15°C° 0.2 mm 2 mps 756 mmHg 96%

Tomorrow, 24 October, Saturday

Time Temperature Precipitation Wind Pressure Humidity
00:00 +15°C° 0.2 mm 2 mps 756 mmHg 96%
01:00 +14°C° 0.2 mm 2 mps 756 mmHg 96%
02:00 +14°C° 0.3 mm 2 mps 756 mmHg 95%
03:00 +13°C° 0.3 mm 3 mps 756 mmHg 93%
04:00 +13°C° 0.3 mm 3 mps 756 mmHg 92%
05:00 +13°C° 0 mm 3 mps 757 mmHg 93%
06:00 +12°C° 0 mm 3 mps 757 mmHg 94%
07:00 +12°C° 0 mm 3 mps 758 mmHg 94%
08:00 +12°C° 0 mm 4 mps 758 mmHg 89%
09:00 +13°C° 0 mm 4 mps 758 mmHg 84%
10:00 +14°C° 0 mm 5 mps 758 mmHg 79%
11:00 +14°C° 0 mm 5 mps 759 mmHg 76%
12:00 +14°C° 0 mm 4 mps 759 mmHg 74%
13:00 +14°C° 0 mm 4 mps 759 mmHg 71%
14:00 +14°C° 0 mm 4 mps 759 mmHg 73%
15:00 +14°C° 0 mm 3 mps 759 mmHg 74%
16:00 +15°C° 0 mm 2 mps 759 mmHg 75%
17:00 +14°C° 0 mm 2 mps 759 mmHg 77%
18:00 +14°C° 0 mm 2 mps 760 mmHg 80%
19:00 +14°C° 0 mm 2 mps 760 mmHg 82%
20:00 +14°C° 0 mm 2 mps 760 mmHg 81%
21:00 +13°C° 0 mm 2 mps 760 mmHg 81%
22:00 +13°C° 0 mm 2 mps 761 mmHg 81%
23:00 +13°C° 0 mm 2 mps 760 mmHg 83%

Day after tomorrow, 25 October, Sunday

Time Temperature Precipitation Wind Pressure Humidity
00:00 +11°C° 0 mm 3 mps 760 mmHg 86%
01:00 +11°C° 0 mm 3 mps 760 mmHg 88%
02:00 +11°C° 0 mm 3 mps 760 mmHg 89%
03:00 +10°C° 0 mm 3 mps 760 mmHg 90%
04:00 +10°C° 0 mm 3 mps 760 mmHg 91%
05:00 +10°C° 0 mm 3 mps 760 mmHg 92%
06:00 +10°C° 0 mm 3 mps 759 mmHg 93%
07:00 +9°C° 0 mm 3 mps 759 mmHg 93%
08:00 +11°C° 0 mm 3 mps 759 mmHg 86%
09:00 +12°C° 0 mm 3 mps 759 mmHg 79%
10:00 +14°C° 0 mm 4 mps 759 mmHg 73%
11:00 +15°C° 0 mm 4 mps 759 mmHg 69%
12:00 +17°C° 0 mm 4 mps 759 mmHg 65%
13:00 +18°C° 0 mm 4 mps 758 mmHg 61%
14:00 +18°C° 0 mm 4 mps 758 mmHg 64%
15:00 +17°C° 0 mm 3 mps 757 mmHg 66%
16:00 +17°C° 0 mm 3 mps 757 mmHg 69%
17:00 +16°C° 0 mm 3 mps 757 mmHg 72%
18:00 +14°C° 0 mm 3 mps 757 mmHg 76%
19:00 +13°C° 0 mm 3 mps 757 mmHg 79%
20:00 +12°C° 0 mm 3 mps 757 mmHg 80%
21:00 +12°C° 0 mm 3 mps 757 mmHg 81%
22:00 +11°C° 0 mm 3 mps 757 mmHg 82%
23:00 +11°C° 0 mm 3 mps 756 mmHg 83%

, 26 October, Monday

Time Temperature Precipitation Wind Pressure Humidity
00:00 +11°C° 0 mm 3 mps 756 mmHg 84%
01:00 +10°C° 0 mm 3 mps 756 mmHg 86%
02:00 +10°C° 0 mm 3 mps 756 mmHg 87%
03:00 +10°C° 0 mm 3 mps 755 mmHg 89%
04:00 +10°C° 0 mm 3 mps 755 mmHg 90%
05:00 +9°C° 0 mm 3 mps 755 mmHg 91%
06:00 +9°C° 0 mm 3 mps 755 mmHg 92%
07:00 +9°C° 0 mm 3 mps 755 mmHg 93%
08:00 +10°C° 0 mm 3 mps 754 mmHg 86%
09:00 +12°C° 0 mm 3 mps 754 mmHg 79%
10:00 +13°C° 0 mm 3 mps 754 mmHg 73%
11:00 +14°C° 0 mm 3 mps 753 mmHg 70%
12:00 +16°C° 0 mm 3 mps 753 mmHg 66%
13:00 +17°C° 0 mm 3 mps 753 mmHg 63%
14:00 +17°C° 0 mm 3 mps 752 mmHg 66%
15:00 +16°C° 0 mm 2 mps 752 mmHg 69%
16:00 +16°C° 0 mm 2 mps 752 mmHg 72%
17:00 +15°C° 0 mm 2 mps 752 mmHg 74%
18:00 +14°C° 0 mm 3 mps 752 mmHg 76%
19:00 +13°C° 0 mm 3 mps 751 mmHg 78%
20:00 +13°C° 0.1 mm 3 mps 751 mmHg 79%
21:00 +13°C° 0.1 mm 3 mps 751 mmHg 80%
22:00 +13°C° 0.1 mm 3 mps 751 mmHg 80%
23:00 +14°C° 0 mm 2 mps 751 mmHg 83%

26 October, Monday

Time Temperature Precipitation Wind Pressure Humidity
00:00 +11°C° 0 mm 3 mps 756 mmHg 84%
01:00 +10°C° 0 mm 3 mps 756 mmHg 86%
02:00 +10°C° 0 mm 3 mps 756 mmHg 87%
03:00 +10°C° 0 mm 3 mps 755 mmHg 89%
04:00 +10°C° 0 mm 3 mps 755 mmHg 90%
05:00 +9°C° 0 mm 3 mps 755 mmHg 91%
06:00 +9°C° 0 mm 3 mps 755 mmHg 92%
07:00 +9°C° 0 mm 3 mps 755 mmHg 93%
08:00 +10°C° 0 mm 3 mps 754 mmHg 86%
09:00 +12°C° 0 mm 3 mps 754 mmHg 79%
10:00 +13°C° 0 mm 3 mps 754 mmHg 73%
11:00 +14°C° 0 mm 3 mps 753 mmHg 70%
12:00 +16°C° 0 mm 3 mps 753 mmHg 66%
13:00 +17°C° 0 mm 3 mps 753 mmHg 63%
14:00 +17°C° 0 mm 3 mps 752 mmHg 66%
15:00 +16°C° 0 mm 2 mps 752 mmHg 69%
16:00 +16°C° 0 mm 2 mps 752 mmHg 72%
17:00 +15°C° 0 mm 2 mps 752 mmHg 74%
18:00 +14°C° 0 mm 3 mps 752 mmHg 76%
19:00 +13°C° 0 mm 3 mps 751 mmHg 78%
20:00 +13°C° 0.1 mm 3 mps 751 mmHg 79%
21:00 +13°C° 0.1 mm 3 mps 751 mmHg 80%
22:00 +13°C° 0.1 mm 3 mps 751 mmHg 80%
23:00 +14°C° 0 mm 2 mps 751 mmHg 83%

27 October, Tuesday

Time Temperature Precipitation Wind Pressure Humidity
00:00 +13°C° 0 mm 2 mps 751 mmHg 85%
01:00 +13°C° 0 mm 2 mps 751 mmHg 87%
02:00 +13°C° 0 mm 2 mps 751 mmHg 88%
03:00 +12°C° 0 mm 2 mps 752 mmHg 90%
04:00 +12°C° 0 mm 2 mps 752 mmHg 91%
05:00 +12°C° 0 mm 2 mps 752 mmHg 91%
06:00 +10°C° 0 mm 2 mps 753 mmHg 91%
07:00 +10°C° 0 mm 2 mps 753 mmHg 91%
08:00 +12°C° 0 mm 2 mps 753 mmHg 87%
09:00 +12°C° 0 mm 3 mps 754 mmHg 83%
10:00 +13°C° 0 mm 3 mps 754 mmHg 79%
11:00 +13°C° 0 mm 3 mps 754 mmHg 78%
12:00 +14°C° 0 mm 3 mps 755 mmHg 76%
13:00 +15°C° 0 mm 4 mps 755 mmHg 75%
14:00 +14°C° 0 mm 3 mps 755 mmHg 78%
15:00 +13°C° 0 mm 3 mps 756 mmHg 80%
16:00 +13°C° 0 mm 3 mps 756 mmHg 83%
17:00 +13°C° 0 mm 2 mps 756 mmHg 86%
18:00 +13°C° 0 mm 2 mps 757 mmHg 88%
19:00 +12°C° 0 mm 2 mps 757 mmHg 91%
20:00 +12°C° 0 mm 1 mps 757 mmHg 92%
21:00 +11°C° 0 mm 1 mps 758 mmHg 94%
22:00 +11°C° 0 mm 1 mps 758 mmHg 95%
23:00 +11°C° 0 mm 1 mps 758 mmHg 94%

28 October, Wednesday

Time Temperature Precipitation Wind Pressure Humidity
00:00 +11°C° 0 mm 1 mps 758 mmHg 93%
01:00 +11°C° 0 mm 1 mps 758 mmHg 92%
02:00 +11°C° 0 mm 1 mps 758 mmHg 92%
03:00 +10°C° 0 mm 0 mps 759 mmHg 92%
04:00 +10°C° 0 mm 0 mps 759 mmHg 92%
05:00 +10°C° 0 mm 0 mps 759 mmHg 92%
06:00 +10°C° 0 mm 0 mps 759 mmHg 92%
07:00 +10°C° 0 mm 0 mps 759 mmHg 92%
08:00 +10°C° 0 mm 0 mps 760 mmHg 88%
09:00 +11°C° 0 mm 0 mps 760 mmHg 84%
10:00 +12°C° 0 mm 0 mps 760 mmHg 81%
11:00 +13°C° 0 mm 1 mps 760 mmHg 78%
12:00 +14°C° 0 mm 1 mps 760 mmHg 74%
13:00 +15°C° 0 mm 1 mps 760 mmHg 71%
14:00 +14°C° 0 mm 1 mps 760 mmHg 73%
15:00 +14°C° 0 mm 1 mps 760 mmHg 75%
16:00 +14°C° 0 mm 1 mps 760 mmHg 77%
17:00 +13°C° 0 mm 1 mps 760 mmHg 81%
18:00 +12°C° 0 mm 1 mps 761 mmHg 85%
19:00 +10°C° 0 mm 2 mps 761 mmHg 88%
20:00 +10°C° 0 mm 2 mps 761 mmHg 89%
21:00 +9°C° 0 mm 2 mps 761 mmHg 89%
22:00 +9°C° 0 mm 2 mps 761 mmHg 89%
23:00 +8°C° 0 mm 2 mps 761 mmHg 87%
Show more